Location: Unspecified
(0.0000°N, 0.0000°E)
Time: 20:11:53
(UTC+00:00)

Tiangong 1 - Pass Details

Date: 22 February 2018
Orbit: 248 x 271 km, 42.8° (Epoch: 19 February)

Event Time Altitude Azimuth Distance (km) Brightness Sun altitude
Rises 18:39:04 0° 207° (SSW) 1,843 5.1 -6.3°
Reaches altitude 10° 18:41:11 10° 189° (S) 1,035 3.5 -6.8°
Maximum altitude 18:43:02 21° 135° (SE) 645 1.9 -7.3°
Enters shadow 18:44:44 11° 84° (E) 974 2.4 -7.7°
